Starlink 32176

operational
NORAD ID: 60340 Int'l Des: 2024-136 Owner: SPXS Country: US Constellation: starlink
LEOCIRCULAR

About Starlink 32176

Description loading...

Live Position

Loading 3D Globe...

Upcoming Passes

Altitude History

Altitude vs Time

uPlot chart will show altitude changes over time

Two-Line Element Set

1 60340U 24136M 26049.28485934 .00000273 00000-0 21347-4 0 9996
2 60340 53.1580 165.7946 0001270 97.5139 262.6007 15.30196634 87869
Epoch: Feb 18, 2026 • Age: 11 hours

Current Status

Altitude 480.2 km
Velocity 7.63 km/s
Sub-Earth Point 49.89°N, 141.48°W
Launch Date Aug 2, 2024
Age 1.5 years
Type internet

Technical Details

Classification Payload
Mass 730.00 kg
Dry Mass 700.00 kg
Total Mass 730.00 kg
Length 0.30 m
Diameter 4.10 m
Span 29.00 m
Shape Box + pan
Manufacturer SPXS
Bus Type Starlink V2M
Phase Status In Orbit
Owner/State SPXS/US

Large Constellations

Loading constellations...